Regional Weather Roundup
Issued by NWS

Home | Current Version | Previous Version | Text Only | Print | Product List | Glossary Off
Versions: 1 2 3 4 5 6 7 8 9 10 11 12 13 14 15 16 17 18 19 20 21 22 23 24 25 26 27 28 29 30 31 32 33 34 35 36 37 38 39 40 41 42 43 44 45 46 47 48 49 50

000
ASUS43 KDMX 212307
RWRIA

WEATHER ROUNDUP FOR IOWA
NATIONAL WEATHER SERVICE DES MOINES IA
600 PM CDT SUN SEP 21 2014

NOTE: "FAIR" INDICATES FEW OR NO CLOUDS BELOW 12,000 FEET WITH NO
SIGNIFICANT WEATHER AND/OR OBSTRUCTIONS TO VISIBILITY.

* - THESE STATIONS ARE NOT NWS STATIONS...THUS NOT UNDER NWS
QUALITY CONTROL.  THEY ALSO DO NOT REPORT WEATHER SUCH
AS PRECIPITATION OR FOG.

IAZ001>003-012>014-020>022-031>034-043>046-220000-
   NORTHWEST IOWA

CITY           SKY/WX    TMP DP  RH WIND       PRES   REMARKS
CARROLL *      MOSUNNY   66  48  52 N12G18    30.19S
CHEROKEE *     SUNNY     66  48  52 N7        30.21R
DENISON *      MOSUNNY   68  48  49 NW12      30.18S
LE MARS *      SUNNY     70  46  43 N6        30.22S
ORANGE CITY *  SUNNY     70  43  37 N8        30.22S
SHELDON *      MOSUNNY   68  46  45 N10       30.20S
SIOUX CITY     PTSUNNY   72  47  40 N13       30.21F
SPENCER        MOSUNNY   67  46  47 N16G22    30.20F
STORM LAKE *   SUNNY     66  52  59 N10       30.20F
$$

IAZ055>058-069>071-079>083-090>094-220000-
   SOUTHWEST IOWA

CITY           SKY/WX    TMP DP  RH WIND       PRES   REMARKS
ATLANTIC *     PTSUNNY   68  48  49 N12       30.19R
AUDUBON *      MOSUNNY   66  45  45 NW8       30.21R
CLARINDA *     SUNNY     72  48  43 N13       30.20S
COUNCIL BLFS * SUNNY     70  48  46 N10G16    30.20R
CRESTON *      PTSUNNY   66  48  52 N13       30.19R
HARLAN  *      MOSUNNY   68  48  49 N14       30.24R
LAMONI         PTSUNNY   68  50  52 N12       30.17R
RED OAK *      MOSUNNY   70  48  46 N10G16    30.20R
SHENANDOAH *   SUNNY     70  48  46 N13G18    30.20S
$$

IAZ047>049-059>061-072>074-084-220000-
   CENTRAL IOWA

CITY           SKY/WX    TMP DP  RH WIND       PRES   REMARKS
AMES           PTSUNNY   66  48  52 N14G21    30.16S
ANKENY *       PTSUNNY   66  48  52 N12G18    30.17R
CHARITON *     CLOUDY    68  48  49 N12G20    30.16R
DES MOINES     PTSUNNY   68  48  48 N10       30.16R
GRINNELL*      MOSUNNY   64  48  55 NW8       30.16R
KNOXVILLE *    CLOUDY    66  46  48 N13G21    30.15R
MARSHALLTOWN   MOSUNNY   65  47  52 N20       30.15R
PELLA *        PTSUNNY   66  48  52 N13       30.16R
PERRY *        PTSUNNY   68  46  45 N7        30.18S
$$

IAZ004>006-015-016-023>025-035-036-220000-
   NORTH CENTRAL IOWA

CITY           SKY/WX    TMP DP  RH WIND       PRES   REMARKS
ALGONA *       SUNNY     64  48  55 N12G18    30.20R
CLARION *        N/A     64  48  55 N14       30.18R
ESTHERVILLE    SUNNY     64  48  56 N13       30.20S
FORT DODGE *   MOSUNNY   66  48  52 N9        30.20R
MASON CITY     MOSUNNY   62  47  57 NW17      30.18R
FOREST CITY *  PTSUNNY   61  50  67 NW13      30.18R
IOWA FALLS *     N/A     66  46  48 N9G18     30.17S
$$

IAZ007>011-017>019-026>030-037>042-050>054-066-220000-
   NORTHEAST IOWA

CITY           SKY/WX    TMP DP  RH WIND       PRES   REMARKS
CEDAR RAPIDS   PTSUNNY   64  49  57 N14       30.12R
CHARLES CITY * PTSUNNY   63  46  55 NW13G21   30.16R
CLINTON *      MOSUNNY   63  48  59 NW8       30.11R
DECORAH *      MOSUNNY   63  48  59 NW9G17    30.12R
DUBUQUE        PTSUNNY   63  47  55 N12       30.10R
MONTICELLO *   MOSUNNY   64  48  55 NW12G20   30.11R
OELWEIN *      MOSUNNY   64  46  52 N16G22    30.14R
WATERLOO       MOSUNNY   63  47  55 NW14      30.13R
$$

IAZ064-065-067-068-078-220000-
   EAST CENTRAL IOWA

CITY           SKY/WX    TMP DP  RH WIND       PRES   REMARKS
DAVENPORT      MOSUNNY   65  48  54 NW13      30.09R
IOWA CITY        N/A     65  50  58 NW13G21   30.13R
MT. PLEASANT * PTSUNNY   66  46  48 NW9       30.13S
MUSCATINE *    SUNNY     66  50  55 NW14G20   30.11S
QUAD CITIES    MOSUNNY   66  51  58 W10       30.09R
$$

IAZ062-063-075>077-085>089-095>099-220000-
   SOUTHEAST IOWA

CITY           SKY/WX    TMP DP  RH WIND       PRES   REMARKS
BURLINGTON     CLOUDY    64  51  62 NW8       30.12R
FAIRFIELD *    MOSUNNY   64  50  59 NW10G17   30.14R
FORT MADISON * MOSUNNY   66  50  55 N10       30.13S
KEOKUK *       SUNNY     64  52  63 N13G18    30.12R
OSKALOOSA *      N/A     64  50  59 N10       30.15R
CENTERVILLE *  PTSUNNY   66  50  55 N10       30.16S
OTTUMWA        PTSUNNY   66  48  52 N18       30.14R
WASHINGTON *   PTSUNNY   64  50  59 N10G17    30.13R
$$

ABBREVIATIONS USED IN REMARKS
   TC - TEMPERATURES IN CELSIUS
  WCI - WIND CHILL INDEX
   HX - HEAT INDEX
  VSB - VISIBILITY
$$




USA.gov is the U.S. government's official web portal to all federal, state and local government web resources and services.